Location: Nelson
(47.1935°N, 121.0537°W)
Time: 05:04:55
(UTC+00:00)

N. Korean satellite - Visible Passes

Search period start: 28 November 2022 00:00
Search period end: 08 December 2022 00:00
Orbit: 422 x 454 km, 97.3° (Epoch: 27 November)

Date Brightness Start Highest point End Pass type
(mag) Time Alt. Az. Time Alt. Az. Time Alt. Az.
28 Nov 7.6 00:47:47 10° S 00:51:01 48° W 00:54:21 10° NNW visible
28 Nov 6.3 13:36:58 10° N 13:40:25 76° WNW 13:43:48 10° SSW visible
29 Nov 10.0 01:44:11 10° WSW 01:45:14 11° W 01:46:17 10° WNW visible
29 Nov 8.2 12:58:32 10° NNE 13:01:41 33° E 13:04:48 10° SSE visible
29 Nov 7.9 14:31:38 10° NNW 14:33:58 17° WNW 14:36:18 10° WSW visible
30 Nov 8.6 01:03:13 10° SSW 01:06:15 31° W 01:09:20 10° NNW visible
30 Nov 9.8 12:21:20 10° ENE 12:22:43 12° E 12:24:05 10° ESE visible
30 Nov 6.6 13:52:12 10° N 13:55:30 47° WNW 13:58:47 10° SSW visible
01 Dec 7.2 13:13:26 10° NNE 13:16:49 51° E 13:20:07 10° S visible
01 Dec 8.3 14:47:26 10° NW 14:48:53 12° WNW 14:50:20 10° W visible
02 Dec 9.3 01:18:44 10° SW 01:21:22 21° W 01:24:02 10° NW visible
02 Dec 9.3 12:35:28 10° NE 12:37:51 18° E 12:40:12 10° SE visible
02 Dec 7.1 14:07:23 10° N 14:10:27 31° WNW 14:13:29 10° SW visible
03 Dec 6.4 13:28:19 10° NNE 13:31:46 83° ESE 13:35:08 10° S visible
04 Dec 9.7 01:34:28 10° SW 01:36:24 14° W 01:38:19 10° WNW visible
04 Dec 8.7 12:49:55 10° NE 12:52:50 26° E 12:55:42 10° SSE visible
04 Dec 7.6 14:22:33 10° NNW 14:25:13 21° WNW 14:27:52 10° WSW visible
05 Dec 8.0 00:54:06 10° S 00:57:19 40° W 01:00:34 10° NNW visible
05 Dec 6.3 13:43:10 10° N 13:46:34 63° WNW 13:49:53 10° SSW visible
06 Dec 7.8 13:04:26 10° NNE 13:07:39 38° E 13:10:49 10° SSE visible
06 Dec 8.1 14:37:48 10° NNW 14:39:50 15° WNW 14:41:52 10° W visible
07 Dec 8.9 01:09:10 10° SSW 01:12:06 27° W 01:15:04 10° NW visible
07 Dec 9.7 12:26:42 10° ENE 12:28:29 14° E 12:30:15 10° ESE visible
07 Dec 6.8 13:57:59 10° N 14:01:12 40° WNW 14:04:22 10° SW visible
